Location: *
(32.8667°N, 13.1833°E)
Time: 06:36:43
(UTC+00:00)

Terra - Pass Details

Date: 18 July 2019
Orbit: 701 x 703 km, 98.2° (Epoch: 23 August)

Event Time Altitude Azimuth Distance (km) Brightness Sun altitude
Exits shadow 21:27:48 48° 324° (NW) 921 2.7 -30.6°
Drops below altitude 10° 21:31:18 10° 342° (NNW) 2,174 5.2 -30.9°
Sets 21:33:35 0° 345° (NNW) 3,096 6.2 -31.1°
